Weather History for KROC - October, 2012

Change the Weather History Date:

Friday, October 5, 2012

  Actual Average Record
Temperature  
Mean Temperature 64 °F 54 °F  
Max Temperature 73 °F 64 °F 91 °F (1951)
Min Temperature 54 °F 45 °F 26 °F (1965)
Degree Days  
Heating Degree Days 1 11  
Month to date heating degree days 16 52  
Since 1 July heating degree days 168 233  
Cooling Degree Days 0 0  
Month to date cooling degree days 2 0  
Year to date cooling degree days 799 534  
Growing Degree Days 14 (Base 50)    
Moisture  
Dew Point 54 °F    
Average Humidity 76    
Maximum Humidity 86    
Minimum Humidity 66    
Precipitation  
Precipitation 0.01 in 0.10 in 1.07 in (1932)
Month to date precipitation 0.05 0.46  
Year to date precipitation 24.99 26.44  
Snow  
Snow 0.00 in 0.00 in T in (1988)
Month to date snowfall 0.0 0.0  
Since 1 July snowfall 0.0 0.0  
Since 1 September snowfall 0.0 0.0  
Snow Depth 0.00 in    
Sea Level Pressure  
Sea Level Pressure 29.97 in    
Wind  
Wind Speed 10 mph (WSW)    
Max Wind Speed 22 mph    
Max Gust Speed 26 mph    
Visibility 10 miles    
Events Rain    
T = Trace of Precipitation, MM = Missing Value Source: NWS Daily Summary

Daily Weather History Graph

Daily Weather History Graph

Search for Another Location

Airport or City:

Trip Planner

Search our weather history database for the weather conditions in past years. The results will help you decide how hot, cold, wet, or windy it might be!

Date:

Astronomy

Oct. 05, 2012 Rise Set
Actual Time 7:13 AM EDT 6:44 PM EDT
Civil Twilight 6:44 AM EDT 7:12 PM EDT
Nautical Twilight 6:11 AM EDT 7:45 PM EDT
Astronomical Twilight 5:38 AM EDT 8:18 PM EDT
Moon 9:58 PM EDT (10/5) 12:26 PM EDT (10/5)
Length of Visible Light 12h 27m
Length of Day
11h 30m
Waning Gibbous, 74% of the Moon is Illuminated
Oct 5
Waning Gibbous
Oct 8
Last Quarter
Oct 15
New
Oct 21
First Quarter
Oct 29
Full

Hourly Weather History & Observations

Time (EDT) Temp. Dew Point Humidity Pressure Visibility Wind Dir Wind Speed Gust Speed Precip Events Conditions
12:54 AM 55.0 °F 50.0 °F 83% 30.04 in 10.0 mi SSW 5.8 mph - N/A   Clear
1:54 AM 55.9 °F 50.0 °F 80% 30.03 in 10.0 mi SSW 4.6 mph - N/A   Clear
2:54 AM 55.0 °F 51.1 °F 86% 30.02 in 10.0 mi SSW 5.8 mph - N/A   Clear
3:54 AM 57.0 °F 52.0 °F 83% 30.01 in 10.0 mi SSW 8.1 mph - N/A   Clear
4:54 AM 60.1 °F 53.1 °F 78% 29.99 in 10.0 mi SSW 8.1 mph - N/A   Overcast
5:54 AM 61.0 °F 53.1 °F 75% 29.99 in 10.0 mi SSW 11.5 mph - N/A   Overcast
6:54 AM 62.1 °F 53.1 °F 72% 29.98 in 10.0 mi SSW 10.4 mph - N/A   Overcast
7:54 AM 62.1 °F 54.0 °F 75% 30.00 in 10.0 mi SSW 8.1 mph - N/A   Mostly Cloudy
8:54 AM 63.0 °F 55.0 °F 75% 30.00 in 10.0 mi SW 6.9 mph - 0.00 in   Overcast
9:54 AM 64.0 °F 57.0 °F 78% 29.99 in 10.0 mi SSW 9.2 mph - 0.00 in Rain Light Rain
10:54 AM 69.1 °F 57.9 °F 68% 29.97 in 10.0 mi SW 10.4 mph 17.3 mph 0.00 in   Scattered Clouds
11:54 AM 72.0 °F 59.0 °F 64% 29.96 in 10.0 mi WSW 12.7 mph 20.7 mph N/A   Overcast
12:54 PM 69.1 °F 57.9 °F 68% 29.96 in 10.0 mi WSW 10.4 mph 21.9 mph N/A   Overcast
1:54 PM 69.1 °F 57.0 °F 65% 29.95 in 10.0 mi WSW 18.4 mph 26.5 mph N/A   Overcast
2:54 PM 70.0 °F 57.0 °F 63% 29.94 in 10.0 mi WSW 17.3 mph 23.0 mph N/A   Overcast
3:54 PM 68.0 °F 57.0 °F 68% 29.95 in 10.0 mi West 16.1 mph 24.2 mph 0.00 in   Overcast
4:54 PM 64.9 °F 55.9 °F 73% 29.95 in 10.0 mi West 17.3 mph 26.5 mph N/A   Overcast
5:54 PM 64.0 °F 55.9 °F 75% 29.94 in 10.0 mi WSW 13.8 mph - N/A   Overcast
6:54 PM 62.1 °F 55.0 °F 78% 29.93 in 10.0 mi WSW 15.0 mph 21.9 mph 0.00 in   Overcast
7:12 PM 62.6 °F 55.4 °F 77% 29.93 in 10.0 mi WSW 12.7 mph 19.6 mph N/A   Overcast
7:54 PM 61.0 °F 54.0 °F 78% 29.93 in 10.0 mi West 10.4 mph - N/A   Overcast
8:54 PM 60.1 °F 55.0 °F 83% 29.92 in 10.0 mi West 10.4 mph - 0.00 in Rain Light Rain
9:54 PM 59.0 °F 53.1 °F 81% 29.92 in 10.0 mi West 9.2 mph - 0.00 in   Overcast
10:54 PM 55.9 °F 51.1 °F 84% 29.91 in 10.0 mi West 6.9 mph - 0.00 in   Overcast
11:54 PM 55.0 °F 51.1 °F 86% 29.88 in 10.0 mi West 3.5 mph - 0.01 in Rain Light Rain